Location: Unspecified
(0.0000°N, 0.0000°E)
Time: 12:27:00
(UTC+00:00)

Vanguard 2 - All Passes

Search period start: 25 June 2016 00:00
Search period end: 05 July 2016 00:00
Orbit: 554 x 2940 km, 32.9° (Epoch: 25 June)

Date Brightness Start Highest point End Pass type
(mag) Time Alt. Az. Time Alt. Az. Time Alt. Az.
25 Jun - 01:42:16 10° WNW 01:59:52 66° SW 02:12:31 10° SE visible
25 Jun - 04:01:13 10° W 04:11:23 22° SW 04:19:00 10° S visible
25 Jun - 12:53:01 10° SW 12:57:07 88° SE 13:02:40 10° NE daylight
25 Jun - 15:03:01 10° WNW 15:06:45 17° NNW 15:11:33 10° NNE daylight
25 Jun - 19:30:10 10° N 19:35:33 13° NNE 19:41:37 10° NE visible
25 Jun - 21:37:49 10° NNW 21:51:26 31° NNE 22:06:04 10° E visible
25 Jun - 23:47:52 10° NW 00:05:43 71° NE 00:21:07 10° ESE visible
26 Jun - 02:01:42 10° WNW 02:18:27 51° SW 02:30:37 10° SE visible
26 Jun - 04:23:13 10° WSW 04:30:18 15° SSW 04:36:04 10° S visible
26 Jun - 11:05:06 10° S 11:07:25 15° SSE 11:09:46 10° ESE daylight
26 Jun - 13:11:34 10° WSW 13:15:35 47° NNW 13:21:03 10° NE daylight
26 Jun - 15:23:59 10° NNW 15:25:57 11° NNW 15:28:09 10° N daylight
26 Jun - 19:48:01 10° N 19:55:33 16° NNE 20:04:16 10° NE visible
26 Jun - 21:55:51 10° NNW 22:10:40 40° NNE 22:26:24 10° E visible
27 Jun - 00:06:24 10° NW 00:24:31 87° NE 00:39:51 10° SE visible
27 Jun - 02:21:36 10° W 02:37:05 39° SW 02:48:33 10° SSE visible
27 Jun - 04:47:17 10° SW 04:49:31 11° SSW 04:51:37 10° SSW visible
27 Jun - 11:22:22 10° SSW 11:25:52 29° SE 11:29:34 10° E daylight
27 Jun - 13:30:36 10° W 13:34:15 26° NNW 13:38:59 10° NNE daylight
27 Jun - 20:05:47 10° NNW 20:15:17 20° NNE 20:26:29 10° ENE visible
27 Jun - 22:13:56 10° NW 22:29:43 50° NE 22:46:12 10° ESE visible
28 Jun - 00:25:12 10° WNW 00:43:13 76° SW 00:58:20 10° SE visible
28 Jun - 02:42:05 10° W 02:55:52 30° SW 03:06:20 10° SSE visible
28 Jun - 11:40:19 10° SW 11:44:14 61° SE 11:48:32 10° ENE daylight
28 Jun - 13:50:22 10° WNW 13:53:05 15° NNW 13:56:21 10° NNE daylight
28 Jun - 20:23:35 10° NNW 20:34:43 26° NNE 20:48:04 10° E visible
28 Jun - 22:32:09 10° NW 22:48:35 63° NE 23:05:34 10° ESE visible
29 Jun - 00:44:19 10° WNW 01:01:56 61° SW 01:16:36 10° SE visible
29 Jun - 03:03:16 10° WSW 03:14:50 23° SSW 03:23:58 10° SSE visible
29 Jun - 09:52:27 10° S 09:54:09 12° SSE 09:55:44 10° SE daylight
29 Jun - 11:58:43 10° WSW 12:02:38 61° NW 12:07:01 10° NE daylight
29 Jun - 18:36:57 10° N 18:39:35 11° NNE 18:42:24 10° NE visible
29 Jun - 20:41:25 10° NNW 20:53:52 33° NNE 21:08:57 10° E visible
29 Jun - 22:50:30 10° NW 23:07:22 78° NE 23:24:33 10° ESE visible
30 Jun - 01:03:49 10° WNW 01:20:41 48° SW 01:34:43 10° SE visible
30 Jun - 03:25:15 10° WSW 03:34:06 17° SSW 03:41:23 10° S visible
30 Jun - 10:09:16 10° SSW 10:12:50 22° SSE 10:15:59 10° E daylight
30 Jun - 12:17:38 10° W 12:21:07 29° NNW 12:25:01 10° NNE daylight
30 Jun - 18:53:14 10° N 18:59:14 14° NNE 19:06:20 10° NE visible
30 Jun - 20:59:21 10° NNW 21:12:48 43° NE 21:29:12 10° E visible
30 Jun - 23:09:04 10° NW 23:26:07 86° SW 23:43:15 10° SE visible
01 Jul - 01:23:49 10° W 01:39:35 38° SW 01:52:42 10° SSE visible
01 Jul - 03:48:12 10° SW 03:53:39 13° SSW 03:58:27 10° S visible
01 Jul - 10:27:04 10° SW 10:31:23 43° SSE 10:35:09 10° ENE daylight
01 Jul - 12:37:16 10° WNW 12:39:43 15° NNW 12:42:23 10° N daylight
01 Jul - 19:10:28 10° N 19:18:36 19° NNE 19:28:47 10° ENE visible
01 Jul - 21:17:23 10° NW 21:31:36 55° NE 21:48:56 10° ESE visible
01 Jul - 23:27:54 10° WNW 23:44:53 70° SW 00:01:43 10° SE visible
02 Jul - 01:44:23 10° W 01:58:39 29° SSW 02:10:36 10° SSE visible
02 Jul - 08:38:18 10° S 08:40:39 12° SSE 08:42:44 10° SE daylight
02 Jul - 10:45:21 10° SW 10:49:48 87° NW 10:53:46 10° NE daylight
02 Jul - 19:27:58 10° NNW 19:37:41 26° NE 19:50:21 10° E visible
02 Jul - 21:35:34 10° NW 21:50:19 69° NE 22:08:15 10° ESE visible
02 Jul - 23:47:04 10° WNW 00:03:44 56° SW 00:19:59 10° SE visible
03 Jul - 02:05:36 10° WSW 02:17:58 23° SSW 02:28:26 10° SSE visible
03 Jul - 08:55:14 10° SSW 08:59:35 21° SSE 09:02:59 10° ESE daylight
03 Jul - 11:04:06 10° WSW 11:08:11 39° NW 11:11:55 10° NE daylight
03 Jul - 19:45:40 10° NNW 19:56:31 35° NE 20:11:09 10° E visible
03 Jul - 21:53:56 10° NW 22:09:00 85° NE 22:27:11 10° SE visible
04 Jul - 00:06:39 10° W 00:22:42 44° SSW 00:38:08 10° SE visible
04 Jul - 02:27:30 10° WSW 02:37:35 18° SSW 02:46:16 10° SSE visible
04 Jul - 09:12:59 10° SW 09:18:20 36° SSE 09:22:16 10° E daylight
04 Jul - 11:23:27 10° W 11:26:34 20° NW 11:29:32 10° NNE daylight
04 Jul - 17:59:00 10° N 18:03:13 13° NNE 18:08:08 10° NE daylight
04 Jul - 20:03:30 10° NNW 20:15:11 45° NE 20:31:19 10° ESE visible
04 Jul - 22:12:33 10° WNW 22:27:45 78° SW 22:45:51 10° SE visible
